Location: *
(51.2167°N, 10.0667°E)
Time: 13:00:39
(UTC+00:00)

SL-16 R/B - Pass Details

Date: 12 December 2019
Orbit: 843 x 845 km, 71.0° (Epoch: 18 January)

Event Time Altitude Azimuth Distance (km) Brightness Sun altitude
Rises 17:18:57 0° 287° (WNW) 3,409 6.4 -18.6°
Reaches altitude 10° 17:23:05 10° 316° (NW) 2,477 5.0 -19.3°
Maximum altitude 17:25:26 13° 341° (NNW) 2,301 4.5 -19.6°
Drops below altitude 10° 17:27:49 10° 6° (N) 2,480 4.4 -20.0°
Enters shadow 17:28:39 - 14° (NNE) 2,620 4.5 -20.1°
